Hourly Weather Roundup
Issued by NWS Central Illinois

Home | Current Version | Previous Version | Text Only | Print | Product List | Glossary On
Versions: 1 2 3 4 5 6 7 8 9 10 11 12 13 14 15 16 17 18 19 20 21 22 23 24 25 26 27 28 29 30 31 32 33 34 35 36 37 38 39 40 41 42 43 44 45 46 47 48 49 50
000
NZUS43 KILX 261010
HWRILX

AREA WEATHER ROUNDUP
NATIONAL WEATHER SERVICE, LINCOLN IL
500 AM CDT THU MAY 26 2016


CITY           SKY/WX    TMP DP  RH WIND       PRES   REMARKS
BLOOMINGTON    PTCLDY    67  67 100 S12       29.94S
CHAMPAIGN      PTCLDY    67  65  93 S8        29.96F FOG
DANVILLE       CLOUDY    68  65  91 S7        29.95F
DECATUR        CLOUDY    69  66  90 S8        29.95S
EFFINGHAM      PTCLDY    66  66 100 SE5       29.99F
FLORA          MOCLDY    69  65  87 S9        29.98F
GALESBURG      CLOUDY    69  64  83 S8        29.90R
JACKSONVILLE   PTCLDY    69  65  88 S6        29.90S
LACON          CLOUDY    69  64  86 S5        29.89S
LAWRENCEVILLE  MOCLDY    67  65  93 S6        30.01F
LITCHFIELD     MOCLDY    68  65  90 S9        29.94S
$$


CITY           SKY/WX    TMP DP  RH WIND       PRES   REMARKS
LINCOLN        CLOUDY    70  67  92 S6        29.92S
MACOMB         TSTM      68  63  84 W32G44    29.96R
MATTOON        MOCLDY    67  64  90 S9        29.96F
MT CARMEL AP   PTCLDY    66  63  89 S5        30.01F
OLNEY-NOBLE AP PTCLDY    63  63 100 SE3       30.00S
PARIS          CLOUDY    66  65  96 SE3       29.99F
PEORIA         CLOUDY    69  65  86 S8        29.89F
PONTIAC        CLEAR     69  67  94 S13       29.93R
RANTOUL        CLOUDY    70  68  92 S9        29.95F
ROBINSON       MOCLDY    65  64  96 S5        30.01F
SPRINGFIELD    CLOUDY    71  67  87 S8        29.92F
TAYLORVILLE    CLOUDY    69  67  93 S8        29.94R
$$

...REGIONAL REPORTS...


CITY           SKY/WX    TMP DP  RH WIND       PRES   REMARKS
CHICAGO O`HARE PTCLDY    67  65  93 S9        29.87F
KANKAKEE       CLEAR    N/A N/A N/A S10       29.93S
MOLINE         CLOUDY    73  63  70 SW12      29.87R
MOUNT STERLING TSTM      67  65  93 S8        29.87F
MOUNT VERNON   PTCLDY    66  61  82 S7        29.99F
PITTSFIELD     MOCLDY    71  68  92 S6        29.90S
QUINCY         TSTM      70  67  90 MISG      29.91R FOG
ROCKFORD       CLOUDY    65  63  93 S7        29.90R
$$


CITY           SKY/WX    TMP DP  RH WIND       PRES   REMARKS
BURLINGTON     TSTM      67  66  97 SW12      29.90R
CEDAR RAPIDS   TSTM      65  65 100 NW13      29.89R FOG
DES MOINES     CLOUDY    64  57  78 CALM      29.84R
KIRKSVILLE     CLOUDY    70  66  87 SW5       29.87F
OTTUMWA        MOCLDY    64  62  93 W13       29.92R
ST LOUIS       MOCLDY    72  67  84 S8        29.92F
$$


CITY           SKY/WX    TMP DP  RH WIND       PRES   REMARKS
TERRE HAUTE    MOCLDY    67  64  90 SE8       30.00F
EVANSVILLE     CLEAR     64  62  93 S5        30.04S
INDIANAPOLIS   MOCLDY    67  63  87 S9        30.01F
LAFAYETTE      PTCLDY    68  64  87 S7        29.97S
MADISON        CLOUDY    65  63  93 S6        29.83S
MILWAUKEE      CLOUDY    64  63  96 S6        29.85F FOG
$$






USA.gov is the U.S. government's official web portal to all federal, state and local government web resources and services.